Location: Middle Street
(51.7167°N, 0.0333°E)
Time: 08:57:22
(UTC+00:00)

Cosmos 2228 - Visible Passes

Search period start: 09 May 2021 00:00
Search period end: 19 May 2021 00:00
Orbit: 587 x 619 km, 82.5° (Epoch: 08 May)

Date Brightness Start Highest point End Pass type
(mag) Time Alt. Az. Time Alt. Az. Time Alt. Az.
09 May 5.9 02:14:45 10° NNE 02:17:28 16° ENE 02:20:10 10° ESE visible
10 May 5.4 02:26:38 10° NNE 02:30:05 23° ENE 02:33:33 10° ESE visible
11 May 4.7 02:38:43 10° N 02:42:39 34° ENE 02:46:34 10° SE visible
12 May 3.9 02:50:57 10° N 02:55:08 52° ENE 02:59:20 10° SSE visible
13 May 6.0 01:27:38 10° NE 01:29:16 12° ENE 01:30:54 10° E visible
13 May 3.1 03:03:16 10° N 03:07:34 82° E 03:11:52 10° SSE visible
14 May 5.7 01:39:05 10° NNE 01:41:57 17° ENE 01:44:49 10° ESE visible
14 May 3.0 03:15:42 10° NNW 03:19:56 64° W 03:24:12 10° S visible
15 May 5.2 01:51:00 10° NNE 01:54:33 25° ENE 01:58:07 10° ESE visible
16 May 4.5 02:03:07 10° N 02:07:06 36° ENE 02:11:06 10° SE visible
17 May 3.7 02:15:21 10° N 02:19:35 56° ENE 02:23:50 10° SSE visible
18 May 5.8 00:51:51 10° NNE 00:53:45 13° ENE 00:55:40 10° E visible
18 May 3.0 02:27:41 10° N 02:32:01 87° E 02:36:20 10° S visible
